TimeCST,TemperatureF,Dew PointF,Humidity,Sea Level PressureIn,VisibilityMPH,Wind Direction,Wind SpeedMPH,Gust SpeedMPH,PrecipitationIn,Events,Conditions,WindDirDegrees,DateUTC
12:58 AM,73.9,70.0,87,29.96,10.0,South,16.1,24.2,N/A,,Overcast,190,2013-12-22 06:58:00
1:58 AM,73.9,70.0,87,29.94,10.0,South,18.4,24.2,0.00,,Overcast,190,2013-12-22 07:58:00
2:58 AM,73.9,69.1,85,29.93,10.0,South,19.6,26.5,N/A,,Overcast,180,2013-12-22 08:58:00
3:58 AM,73.9,69.1,85,29.93,10.0,South,18.4,27.6,0.00,,Overcast,190,2013-12-22 09:58:00
4:58 AM,73.9,69.1,85,29.93,10.0,South,11.5,25.3,N/A,,Overcast,180,2013-12-22 10:58:00
5:25 AM,73.4,69.8,88,29.94,10.0,South,16.1,23.0,N/A,,Overcast,190,2013-12-22 11:25:00
5:58 AM,73.9,69.1,85,29.93,10.0,South,19.6,31.1,N/A,,Overcast,190,2013-12-22 11:58:00
6:05 AM,73.4,69.8,88,29.94,10.0,South,15.0,31.1,N/A,,Mostly Cloudy,180,2013-12-22 12:05:00
6:09 AM,73.4,69.8,88,29.94,10.0,South,15.0,25.3,N/A,,Overcast,190,2013-12-22 12:09:00
6:58 AM,73.9,70.0,87,29.96,10.0,South,16.1,-,N/A,,Overcast,180,2013-12-22 12:58:00
7:58 AM,75.0,70.0,84,29.98,10.0,South,18.4,24.2,N/A,,Overcast,190,2013-12-22 13:58:00
8:14 AM,75.2,69.8,83,30.00,10.0,SSW,15.0,25.3,N/A,,Overcast,200,2013-12-22 14:14:00
8:48 AM,75.2,71.6,89,30.00,5.0,South,13.8,25.3,0.01,Rain,Light Rain,190,2013-12-22 14:48:00
8:58 AM,75.0,71.1,87,29.99,9.0,SSW,17.3,25.3,0.01,Rain,Light Rain,200,2013-12-22 14:58:00
8:59 AM,75.2,71.6,89,30.01,10.0,SSW,15.0,25.3,0.00,Rain,Light Rain,200,2013-12-22 14:59:00
9:11 AM,75.2,71.6,89,30.01,7.0,South,13.8,23.0,0.00,Rain,Light Rain,190,2013-12-22 15:11:00
9:25 AM,75.2,71.6,89,30.01,10.0,SSW,18.4,24.2,0.00,,Overcast,200,2013-12-22 15:25:00
10:23 AM,75.2,71.6,89,30.01,6.0,South,15.0,20.7,0.00,Rain,Light Rain,190,2013-12-22 16:23:00
10:58 AM,75.0,71.1,87,29.99,7.0,SSW,18.4,24.2,0.00,Rain,Light Rain,200,2013-12-22 16:58:00
11:50 AM,75.2,71.6,89,29.99,10.0,SSW,15.0,24.2,0.01,,Overcast,200,2013-12-22 17:50:00
11:58 AM,77.0,71.1,82,29.97,10.0,SSW,18.4,26.5,0.01,,Overcast,200,2013-12-22 17:58:00
12:48 PM,75.2,71.6,89,29.96,10.0,South,15.0,23.0,N/A,,Overcast,190,2013-12-22 18:48:00
12:58 PM,75.9,71.1,85,29.95,9.0,SSW,18.4,26.5,0.00,Rain,Light Rain,200,2013-12-22 18:58:00
1:05 PM,75.2,71.6,89,29.96,6.0,South,16.1,26.5,0.00,Rain,Light Rain,190,2013-12-22 19:05:00
1:16 PM,75.2,71.6,89,29.96,7.0,SSW,17.3,24.2,0.00,Rain,Light Rain,200,2013-12-22 19:16:00
1:58 PM,75.9,71.1,85,29.94,10.0,SSW,18.4,25.3,0.00,Rain,Light Rain,200,2013-12-22 19:58:00
2:58 PM,75.9,72.0,87,29.94,10.0,SSW,15.0,-,0.00,,Overcast,200,2013-12-22 20:58:00
3:34 PM,73.4,71.6,94,29.97,7.0,Variable,5.8,25.3,0.01,Rain,Light Rain,0,2013-12-22 21:34:00
3:50 PM,69.8,66.2,88,29.97,10.0,Variable,4.6,17.3,0.01,,Overcast,0,2013-12-22 21:50:00
3:58 PM,68.0,66.0,93,29.96,10.0,SSW,3.5,-,0.01,,Overcast,200,2013-12-22 21:58:00
4:03 PM,68.0,66.2,94,29.97,10.0,NW,3.5,-,0.00,Rain,Light Rain,320,2013-12-22 22:03:00
4:11 PM,66.2,66.2,100,29.97,9.0,Calm,Calm,-,0.00,Rain,Light Rain,0,2013-12-22 22:11:00
4:17 PM,68.0,66.2,94,29.97,8.0,Calm,Calm,-,0.00,Rain,Light Rain,0,2013-12-22 22:17:00
4:25 PM,66.2,64.4,94,29.96,5.0,Calm,Calm,-,0.01,Rain,Light Rain,0,2013-12-22 22:25:00
4:33 PM,66.2,64.4,94,29.96,9.0,Calm,Calm,-,0.01,Rain,Light Rain,0,2013-12-22 22:33:00
4:58 PM,73.9,71.1,91,29.96,10.0,South,12.7,19.6,0.01,Rain,Light Rain,180,2013-12-22 22:58:00
5:58 PM,73.9,71.1,91,29.97,9.0,South,13.8,23.0,0.00,Rain,Light Rain,190,2013-12-22 23:58:00
6:21 PM,71.6,69.8,94,30.00,2.0,NNW,10.4,18.4,0.08,Rain,Heavy Rain,330,2013-12-23 00:21:00
6:28 PM,64.4,62.6,94,30.01,3.0,Variable,5.8,-,0.08,Rain,Rain,0,2013-12-23 00:28:00
6:32 PM,64.4,62.6,94,30.03,6.0,West,9.2,19.6,0.09,Rain,Rain,280,2013-12-23 00:32:00
6:38 PM,62.6,60.8,94,30.03,4.0,NNW,10.4,19.6,0.14,Rain,Rain,340,2013-12-23 00:38:00
6:49 PM,60.8,60.8,100,30.04,5.0,Variable,5.8,-,0.17,Rain,Rain,0,2013-12-23 00:49:00
6:58 PM,61.0,59.0,93,30.04,4.0,NNW,8.1,-,0.19,Rain,Rain,330,2013-12-23 00:58:00
7:06 PM,60.8,59.0,94,30.05,5.0,NNW,10.4,16.1,0.02,Rain,Rain,340,2013-12-23 01:06:00
7:17 PM,60.8,59.0,94,30.06,2.5,NNW,4.6,-,0.07,Rain,Heavy Rain,340,2013-12-23 01:17:00
7:22 PM,60.8,59.0,94,30.06,4.0,North,6.9,-,0.08,Rain,Light Rain,350,2013-12-23 01:22:00
7:42 PM,60.8,57.2,88,30.07,3.0,NNW,6.9,-,0.12,Rain,Rain,330,2013-12-23 01:42:00
7:54 PM,60.8,57.2,88,30.07,7.0,North,6.9,-,0.13,Rain,Light Rain,350,2013-12-23 01:54:00
7:58 PM,60.1,57.9,93,30.06,9.0,Variable,5.8,-,0.13,Rain,Light Rain,0,2013-12-23 01:58:00
8:28 PM,60.8,57.2,88,30.07,10.0,North,4.6,-,0.00,,Overcast,360,2013-12-23 02:28:00
8:35 PM,60.8,57.2,88,30.07,10.0,Variable,5.8,-,0.00,Rain,Light Rain,0,2013-12-23 02:35:00
8:53 PM,59.0,57.2,94,30.06,10.0,North,4.6,-,0.00,Rain,Light Rain,360,2013-12-23 02:53:00
8:58 PM,59.0,57.0,93,30.06,10.0,North,6.9,-,0.00,Rain,Light Rain,10,2013-12-23 02:58:00
9:58 PM,57.9,55.9,93,30.08,5.0,Variable,3.5,-,0.01,Rain,Light Rain,0,2013-12-23 03:58:00
10:29 PM,57.2,55.4,94,30.06,1.5,NE,9.2,-,0.16,Rain,Heavy Rain,40,2013-12-23 04:29:00
10:37 PM,57.2,55.4,94,30.11,3.0,Calm,Calm,-,0.18,Rain,Rain,0,2013-12-23 04:37:00
10:40 PM,57.2,55.4,94,30.11,4.0,Calm,Calm,-,0.18,Rain-Thunderstorm,Thunderstorms and Rain,0,2013-12-23 04:40:00
10:53 PM,57.2,55.4,94,30.11,3.0,Calm,Calm,-,0.23,Rain-Thunderstorm,Heavy Thunderstorms and Rain,0,2013-12-23 04:53:00
10:58 PM,57.0,55.0,93,30.11,2.5,Calm,Calm,-,0.26,Rain,Heavy Rain,0,2013-12-23 04:58:00
11:07 PM,57.2,55.4,94,30.11,3.0,Variable,3.5,-,0.04,Rain,Heavy Rain,0,2013-12-23 05:07:00
11:58 PM,55.9,53.1,90,30.08,4.0,North,8.1,-,0.12,Rain,Rain,10,2013-12-23 05:58:00